Date String (YYYY-MM-DD hh:mm:ss) UTC,Instrument flags,Ambient pressure (hPa),Sample flow (lpm),Bypass flow (lpm),Sample temperature (°C),Ambient temperature (°C),ASC tube jacket temperature (°C),LED temperature (°C),Box temperature (°C),Sample RH (%),Span deviation,Mass concentration (μg/m³),Mass concentration (μg/m³),Mass concentration (μg/m³)
DateTimeUTC,F1_M11,P_M11,Q1_M11,Q2_M11,T1_M11,T2_M11,T3_M11,T4_M11,T5_M11,U1_M11,ZSPAN_M11,X0_M11,X2_M11,X1_M11
2022-01-14 02:00:00,,0825.0,5.02,0.00,29.2,28.3,00.0,38.5,30.8,08.9,0000.0,0022.14,0011.40,0010.47
2022-01-14 02:01:00,,0824.9,5.00,0.00,29.2,28.2,00.0,38.5,30.7,08.8,0000.0,0022.18,0011.45,0010.51
2022-01-14 02:02:00,,0824.9,5.00,0.00,29.1,28.2,00.0,38.4,30.7,09.0,0000.0,0022.58,0011.55,0010.54
2022-01-14 02:03:00,,0824.9,5.02,0.00,29.1,28.2,00.0,38.4,30.7,09.2,0000.0,0022.23,0011.52,0010.51
2022-01-14 02:04:00,,0824.8,4.98,0.00,29.1,28.2,00.0,38.4,30.7,09.3,0000.0,0023.15,0011.40,0010.40
2022-01-14 02:05:00,,0824.6,5.01,0.00,29.1,28.2,00.0,38.4,30.7,09.3,0000.0,0022.44,0011.24,0010.26
2022-01-14 02:06:00,,0824.6,5.01,0.00,29.1,28.2,00.0,38.4,30.7,08.9,0000.0,0021.33,0011.21,0010.25
2022-01-14 02:07:00,,0824.6,5.00,0.00,29.0,28.2,00.0,38.3,30.7,09.1,0000.0,0021.37,0011.21,0010.21
2022-01-14 02:08:00,,0824.6,4.99,0.00,29.0,28.1,00.0,38.3,30.6,09.1,0000.0,0021.31,0011.13,0010.13
2022-01-14 02:09:00,,0824.6,5.02,0.00,28.9,28.0,00.0,38.3,30.5,09.1,0000.0,0021.17,0011.14,0010.13
2022-01-14 02:10:00,,0824.7,4.99,0.00,28.9,28.0,00.0,38.2,30.5,09.0,0000.0,0020.39,0011.14,0010.13
2022-01-14 02:11:00,,0824.7,5.01,0.00,28.9,28.0,00.0,38.2,30.5,09.2,0000.0,0020.09,0011.09,0010.13
2022-01-14 02:12:00,,0824.6,4.99,0.00,28.8,27.9,00.0,38.2,30.4,09.6,0000.0,0019.90,0010.98,0010.01
2022-01-14 02:13:00,,0824.6,5.01,0.00,28.8,27.9,00.0,38.1,30.4,09.8,0000.0,0019.86,0010.77,0009.83
2022-01-14 02:14:00,,0824.6,4.99,0.00,28.8,27.9,00.0,38.1,30.4,09.9,0000.0,0020.86,0010.62,0009.67
2022-01-14 02:15:00,,0824.6,5.00,0.00,28.7,27.9,00.0,38.1,30.4,09.8,0000.0,0020.79,0010.57,0009.61
2022-01-14 02:16:00,,0824.6,5.00,0.00,28.7,27.9,00.0,38.0,30.4,09.4,0000.0,0021.35,0010.66,0009.68
2022-01-14 02:17:00,,0824.5,5.00,0.00,28.7,27.8,00.0,38.0,30.3,09.6,0000.0,0020.38,0010.68,0009.65
2022-01-14 02:18:00,,0824.4,5.01,0.00,28.6,27.8,00.0,38.0,30.3,09.5,0000.0,0020.19,0010.68,0009.70
2022-01-14 02:19:00,,0824.6,5.00,0.00,28.6,27.7,00.0,37.9,30.2,09.5,0000.0,0020.46,0010.71,0009.75
2022-01-14 02:20:00,,0824.6,5.00,0.00,28.6,27.7,00.0,37.9,30.2,09.9,0000.0,0020.17,0010.65,0009.71
2022-01-14 02:21:00,,0824.6,5.00,0.00,28.5,27.6,00.0,37.9,30.1,10.1,0000.0,0020.42,0010.64,0009.68
2022-01-14 02:22:00,,0824.5,4.99,0.00,28.5,27.6,00.0,37.8,30.1,10.7,0000.0,0020.17,0010.64,0009.62
2022-01-14 02:23:00,,0824.5,4.99,0.00,28.4,27.5,00.0,37.8,30.0,10.2,0003.6,0020.40,0010.67,0009.63
2022-01-14 02:24:00,,0824.5,5.02,0.00,28.4,27.5,00.0,37.8,30.0,10.1,0004.6,0019.78,0010.74,0009.71
2022-01-14 02:25:00,,0824.5,4.98,0.00,28.4,27.5,00.0,37.7,30.0,10.1,0004.7,0019.17,0010.85,0009.84
2022-01-14 02:26:00,,0824.4,5.01,0.00,28.3,27.4,00.0,37.7,29.9,10.8,0004.3,0018.93,0010.91,0009.92
2022-01-14 02:27:00,,0824.5,4.98,0.00,28.3,27.4,00.0,37.7,29.9,10.9,0003.9,0018.26,0010.90,0009.92
2022-01-14 02:28:00,,0824.5,5.02,0.00,28.2,27.3,00.0,37.6,29.8,10.5,0004.5,0017.99,0010.79,0009.89
2022-01-14 02:29:00,,0824.4,4.98,0.00,28.2,27.3,00.0,37.6,29.8,10.4,0004.5,0018.23,0010.76,0009.82
2022-01-14 02:30:00,,0824.4,5.00,0.00,28.1,27.2,00.0,37.5,29.7,10.4,0004.1,0017.99,0010.80,0009.80
2022-01-14 02:31:00,,0824.3,5.01,0.00,28.1,27.2,00.0,37.5,29.7,10.2,0004.3,0018.14,0010.80,0009.80
2022-01-14 02:32:00,,0824.4,5.00,0.00,28.0,27.1,00.0,37.5,29.7,09.9,0004.0,0017.75,0010.82,0009.84
2022-01-14 02:33:00,,0824.4,5.01,0.00,28.0,27.1,00.0,37.4,29.6,09.9,0003.7,0017.95,0010.85,0009.89
2022-01-14 02:34:00,,0824.4,5.00,0.00,28.0,27.1,00.0,37.4,29.6,09.8,0003.1,0017.40,0010.86,0009.91
2022-01-14 02:35:00,,0824.3,5.00,0.00,27.9,27.0,00.0,37.3,29.5,10.0,0003.1,0017.66,0010.92,0009.94
2022-01-14 02:36:00,,0824.3,5.00,0.00,27.9,27.0,00.0,37.3,29.5,09.8,0002.9,0017.46,0010.94,0009.94
2022-01-14 02:37:00,,0824.3,5.01,0.00,27.8,27.0,00.0,37.3,29.4,09.8,0002.9,0016.52,0010.96,0009.95
2022-01-14 02:38:00,,0824.2,5.00,0.00,27.8,26.9,00.0,37.2,29.4,09.9,0003.1,0016.67,0011.03,0009.98
2022-01-14 02:39:00,,0824.3,5.01,0.00,27.8,26.9,00.0,37.2,29.4,10.1,0002.3,0016.92,0011.09,0010.02
2022-01-14 02:40:00,,0824.3,4.99,0.00,27.8,26.9,00.0,37.2,29.4,09.7,0001.7,0016.57,0011.04,0010.00
2022-01-14 02:41:00,,0824.3,5.00,0.00,27.7,26.9,00.0,37.1,29.4,09.9,0001.3,0016.66,0011.02,0010.01
2022-01-14 02:42:00,,0824.3,5.01,0.00,27.7,26.9,00.0,37.1,29.3,09.8,0001.3,0017.45,0011.05,0010.03
2022-01-14 02:43:00,,0824.3,5.00,0.00,27.7,26.8,00.0,37.1,29.3,09.8,0001.7,0018.53,0011.05,0010.02
2022-01-14 02:44:00,,0824.2,5.00,0.00,27.6,26.8,00.0,37.0,29.3,10.0,0003.1,0018.89,0011.01,0010.01
2022-01-14 02:45:00,,0824.3,4.99,0.00,27.6,26.8,00.0,37.0,29.3,10.1,0003.9,0018.72,0011.01,0010.04
2022-01-14 02:46:00,,0824.3,5.01,0.00,27.6,26.8,00.0,37.0,29.3,10.1,0003.5,0019.22,0011.02,0010.06
2022-01-14 02:47:00,,0824.3,4.98,0.00,27.6,26.8,00.0,36.9,29.3,10.1,0004.0,0019.17,0010.98,0010.08
2022-01-14 02:48:00,,0824.3,5.02,0.00,27.6,26.8,00.0,36.9,29.3,10.1,0004.0,0019.54,0010.98,0010.10
2022-01-14 02:49:00,,0824.3,4.99,0.00,27.6,26.7,00.0,36.9,29.2,10.1,0004.4,0019.67,0010.90,0010.07
2022-01-14 02:50:00,,0824.2,5.01,0.00,27.5,26.7,00.0,36.9,29.2,10.2,0004.7,0020.40,0010.87,0010.02
2022-01-14 02:51:00,,0824.2,4.98,0.00,27.5,26.7,00.0,36.8,29.1,10.3,0004.9,0020.40,0010.84,0010.00
2022-01-14 02:52:00,,0824.1,5.02,0.00,27.5,26.7,00.0,36.8,29.2,10.3,0005.2,0019.91,0010.72,0009.90
2022-01-14 02:53:00,,0824.2,4.99,0.00,27.5,26.7,00.0,36.8,29.2,10.3,0005.2,0018.83,0010.56,0009.79
2022-01-14 02:54:00,,0824.1,5.01,0.00,27.5,26.6,00.0,36.8,29.1,10.4,0005.2,0017.71,0010.45,0009.69
2022-01-14 02:55:00,,0824.1,4.99,0.00,27.4,26.6,00.0,36.7,29.1,10.4,0005.0,0016.90,0010.37,0009.59
2022-01-14 02:56:00,,0824.0,5.02,0.00,27.4,26.6,00.0,36.7,29.1,10.4,0004.6,0017.20,0010.25,0009.44
2022-01-14 02:57:00,,0824.0,4.99,0.00,27.4,26.6,00.0,36.7,29.2,10.4,0005.1,0016.23,0010.05,0009.29
2022-01-14 02:58:00,,0824.0,5.00,0.00,27.5,26.7,00.0,36.7,29.2,10.0,0005.5,0016.18,0009.87,0009.07
2022-01-14 02:59:00,,0824.1,5.01,0.00,27.5,26.8,00.0,36.7,29.2,10.1,0005.6,0016.78,0009.63,0008.83
